Location: Unspecified
(0.0000°N, 0.0000°E)
Time: 11:23:44
(UTC+00:00)

deb Explorer IX - All Passes

Search period start: 27 June 2016 00:00
Search period end: 07 July 2016 00:00
Orbit: 550 x 1130 km, 38.8° (Epoch: 25 June)

Date Brightness Start Highest point End Pass type
(mag) Time Alt. Az. Time Alt. Az. Time Alt. Az.
27 Jun - 05:06:40 10° NNE 05:08:20 11° NE 05:09:55 10° NE visible
27 Jun - 06:51:05 10° NW 06:55:57 88° SSW 07:00:14 10° SE daylight
27 Jun - 17:45:46 10° SSW 17:51:39 42° SE 17:58:18 10° ENE daylight
27 Jun - 19:33:05 10° WSW 19:39:23 40° NW 19:46:15 10° NNE visible
28 Jun - 04:48:29 10° N 04:51:07 14° NE 04:53:35 10° ENE visible
28 Jun - 06:33:43 10° NW 06:38:42 77° SW 06:43:04 10° SE daylight
28 Jun - 17:28:25 10° SSW 17:34:15 45° SE 17:40:55 10° ENE daylight
28 Jun - 19:15:56 10° WSW 19:21:59 36° NW 19:28:37 10° NNE visible
29 Jun - 04:30:33 10° N 04:33:53 16° NE 04:36:58 10° ENE visible
29 Jun - 06:16:21 10° NW 06:21:28 67° SW 06:25:52 10° SE daylight
29 Jun - 17:11:05 10° SSW 17:16:52 49° SE 17:23:31 10° ENE daylight
29 Jun - 18:58:49 10° W 19:04:37 33° NW 19:10:59 10° NNE visible
30 Jun - 04:12:42 10° N 04:16:39 19° NE 04:20:13 10° E visible
30 Jun - 05:58:59 10° WNW 06:04:11 59° SW 06:08:40 10° SE daylight
30 Jun - 16:53:47 10° SW 16:59:28 54° SE 17:06:05 10° ENE daylight
30 Jun - 18:41:45 10° W 18:47:14 29° NW 18:53:19 10° NNE visible
01 Jul - 03:54:55 10° NNW 03:59:23 22° NE 04:03:22 10° E visible
01 Jul - 05:41:37 10° WNW 05:46:54 52° SW 05:51:26 10° SE daylight
01 Jul - 16:36:30 10° SW 16:42:05 59° SE 16:48:38 10° ENE daylight
01 Jul - 18:24:42 10° W 18:29:53 26° NW 18:35:35 10° NNE visible
02 Jul - 03:37:11 10° NNW 03:42:06 25° NE 03:46:27 10° E visible
02 Jul - 05:24:15 10° WNW 05:29:35 46° SW 05:34:11 10° SSE visible
02 Jul - 16:19:14 10° SW 16:24:42 66° SE 16:31:11 10° ENE daylight
02 Jul - 18:07:42 10° W 18:12:31 23° NW 18:17:51 10° NNE daylight
03 Jul - 03:19:28 10° NNW 03:24:49 29° NE 03:29:29 10° E visible
03 Jul - 05:06:53 10° WNW 05:12:16 42° SW 05:16:54 10° SSE visible
03 Jul - 16:01:59 10° SW 16:07:20 73° SE 16:13:42 10° NE daylight
03 Jul - 17:50:46 10° W 17:55:12 21° NW 18:00:03 10° N daylight
04 Jul - 03:01:47 10° NNW 03:07:29 33° NE 03:12:27 10° E visible
04 Jul - 04:49:30 10° WNW 04:54:56 38° SW 04:59:37 10° SSE visible
04 Jul - 14:02:15 10° SE 14:02:51 10° SE 14:03:29 10° SE daylight
04 Jul - 15:44:45 10° SW 15:49:59 81° SE 15:56:13 10° NE daylight
04 Jul - 17:33:54 10° WNW 17:37:52 18° NW 17:42:11 10° N daylight
05 Jul - 02:44:06 10° NNW 02:50:09 37° NE 02:55:24 10° ESE visible
05 Jul - 04:32:09 10° WNW 04:37:35 35° SW 04:42:17 10° SSE visible
05 Jul - 13:44:07 10° SSE 13:45:33 11° SE 13:47:03 10° ESE daylight
05 Jul - 15:27:32 10° SW 15:32:38 90° ENE 15:38:43 10° NE daylight
05 Jul - 17:17:08 10° WNW 17:20:33 16° NW 17:24:16 10° N daylight
06 Jul - 02:26:27 10° NNW 02:32:47 42° NE 02:38:17 10° ESE night (unlit)
06 Jul - 04:14:47 10° WNW 04:20:13 32° SW 04:24:57 10° SSE visible
06 Jul - 13:26:21 10° SSE 13:28:15 12° SE 13:30:14 10° ESE daylight
06 Jul - 15:10:20 10° SW 15:15:18 81° NW 15:21:12 10° NE daylight
06 Jul - 17:00:29 10° WNW 17:03:15 14° NNW 17:06:12 10° N daylight
